EW5295 Weather Reports


time (UTC)temp
F
wind
direction
speed
knots
gust
knots
rain 1hr
in
rain 24hr
in
rain mn
in
humidity
%
barometer
mb
20260509203006 74 130 0.0 2.6 0.00 0.00 0.00 42 1017.1
20260509201502 73 153 0.0 2.6 0.00 0.00 0.00 44 1017.4
20260509200107 73 141 0.0 1.7 0.00 0.00 0.00 45 1017.5
20260509194541 72 146 0.0 1.7 0.00 0.00 0.00 48 1017.8
20260509193041 71 155 0.0 1.7 0.00 0.00 0.00 50 1017.9
20260509191521 70 177 0.0 1.7 0.00 0.00 0.00 54 1018.1
20260509190032 70 291 0.0 1.7 0.00 0.00 0.00 53 1018.3
20260509184526 68 124 0.0 4.3 0.00 0.00 0.00 57 1018.5
20260509183017 68 97 0.0 1.7 0.00 0.00 0.00 56 1018.7
20260509181511 67 163 0.0 1.7 0.00 0.00 0.00 61 1018.8
20260509180010 65 131 0.0 0.9 0.00 0.00 0.00 65 1018.9
20260509174509 63 191 0.0 1.7 0.00 0.00 0.00 66 1018.9
20260509173011 63 172 0.0 2.6 0.00 0.00 0.00 69 1019.0
20260509171606 62 169 0.0 0.9 0.00 0.00 0.00 71 1019.2
20260509170050 60 194 0.0 0.9 0.00 0.00 0.00 74 1019.5
20260509164551 59 134 0.0 1.7 0.00 0.00 0.00 74 1019.5
20260509163053 58 127 0.0 0.9 0.00 0.00 0.00 77 1019.6
20260509161543 56 158 0.0 0.9 0.00 0.00 0.00 80 1019.9
20260509160044 56 170 0.0 0.9 0.00 0.00 0.00 82 1020.2
20260509154543 54 131 0.0 0.9 0.00 0.00 0.00 84 1020.1
20260509153044 53 176 0.0 0.9 0.00 0.00 0.00 85 1020.0
20260509151540 53 171 0.0 0.9 0.00 0.00 0.00 87 1020.4
20260509150017 52 166 0.0 0.9 0.00 0.00 0.00 88 1020.5
20260509144516 51 189 0.0 1.7 0.00 0.00 0.00 90 1020.5
20260509143017 51 165 0.0 0.9 0.00 0.00 0.00 92 1020.3
20260509141521 49 130 0.0 0.0 0.00 0.00 0.00 95 1020.4
20260509140018 48 129 0.0 0.0 0.00 0.00 0.00 95 1020.3
20260509134612 0 0.0 0.0 0.00 0.00 0.00 1020.3
20260509133055 0 0.0 0.0 0.00 0.00 0.00 1020.0
20260509131609 0 0.0 0.0 0.00 0.00 0.00 1020.0
20260509130059 0 0.0 0.0 0.00 0.00 0.00 1020.1
20260509124548 46 125 0.0 0.0 0.00 0.00 0.00 93 1019.9
20260509123049 47 128 0.0 0.0 0.00 0.00 0.00 93 1020.1
20260509121548 47 128 0.0 0.0 0.00 0.00 0.00 93 1020.3
20260509120040 47 128 0.0 0.0 0.00 0.00 0.00 92 1020.2
20260509114537 48 128 0.0 0.0 0.00 0.00 0.00 91 1020.2
20260509113024 48 128 0.0 0.0 0.00 0.00 0.00 91 1020.3
20260509111524 49 127 0.0 0.0 0.00 0.00 0.00 90 1020.4
20260509110025 49 127 0.0 1.7 0.00 0.00 0.00 90 1020.6
20260509104522 50 142 0.0 0.9 0.00 0.00 0.00 90 1020.8
20260509103025 50 154 0.0 1.7 0.00 0.00 0.00 90 1020.8
20260509101522 50 158 0.0 1.7 0.00 0.00 0.00 90 1020.8
20260509100019 50 131 0.0 0.9 0.00 0.00 0.00 90 1020.9
20260509094517 50 143 0.0 0.9 0.00 0.00 0.00 91 1020.8
20260509093016 50 153 0.0 1.7 0.00 0.00 0.00 91 1021.0
20260509091507 49 96 0.0 0.0 0.00 0.00 0.00 90 1021.1
20260509090003 49 96 0.0 0.0 0.00 0.00 0.00 90 1021.1
20260509084619 50 96 0.0 0.0 0.00 0.00 0.00 90 1021.3
20260509083059 50 96 0.0 0.9 0.00 0.00 0.00 90 1021.4
20260509081558 50 167 0.0 0.0 0.00 0.00 0.00 88 1021.5
20260509080057 51 167 0.0 0.0 0.00 0.00 0.00 87 1021.6
20260509074556 51 167 0.0 0.0 0.00 0.00 0.00 85 1021.8
20260509073034 52 167 0.0 0.0 0.00 0.00 0.00 85 1021.7
20260509071532 52 167 0.0 0.0 0.00 0.00 0.00 84 1021.7
20260509070019 52 167 0.0 0.0 0.00 0.00 0.00 85 1021.7
20260509064520 52 167 0.0 0.0 0.00 0.00 0.00 85 1021.6
20260509063017 53 167 0.0 0.0 0.00 0.00 0.00 83 1021.7
20260509061514 53 167 0.0 0.0 0.00 0.00 0.00 81 1021.6
20260509060012 54 167 0.0 0.0 0.00 0.00 0.00 80 1021.5
20260509054521 55 167 0.0 0.0 0.00 0.00 0.00 79 1021.5
20260509053013 56 167 0.0 0.0 0.00 0.00 0.00 78 1021.5
20260509051504 56 167 0.0 0.0 0.00 0.00 0.00 77 1021.4
20260509050050 57 167 0.0 0.0 0.00 0.00 0.00 76 1021.2
20260509044549 57 167 0.0 0.9 0.00 0.00 0.00 74 1021.1
20260509043043 58 148 0.0 1.7 0.00 0.00 0.00 71 1021.0
20260509041540 59 156 0.0 0.9 0.00 0.00 0.00 69 1020.9
20260509040036 60 163 0.0 1.7 0.00 0.00 0.00 66 1020.8
20260509034535 61 152 0.0 0.9 0.00 0.00 0.00 65 1020.7
20260509033033 61 150 0.0 0.0 0.00 0.00 0.00 64 1020.5
20260509031531 61 151 0.0 3.5 0.00 0.00 0.00 62 1020.5
20260509030030 62 159 0.0 0.0 0.00 0.00 0.00 62 1020.4
20260509024517 63 160 0.0 1.7 0.00 0.00 0.00 60 1020.3
20260509023023 64 168 0.0 0.9 0.00 0.00 0.00 58 1020.1
20260509021512 64 168 0.0 1.7 0.00 0.00 0.00 57 1020.1
20260509020008 65 105 0.0 0.9 0.00 0.00 0.00 56 1020.1
20260509014507 66 153 0.0 0.9 0.00 0.00 0.00 56 1020.2
20260509013006 66 106 0.0 0.9 0.00 0.00 0.00 56 1020.1
20260509011505 65 135 0.0 0.9 0.00 0.00 0.00 55 1020.3
20260509010104 66 141 0.0 0.9 0.00 0.00 0.00 53 1020.5
20260509004552 66 146 0.0 3.5 0.00 0.00 0.00 53 1020.4
20260509003112 67 135 0.0 2.6 0.00 0.00 0.00 53 1020.4
20260509001552 67 134 0.0 1.7 0.00 0.00 0.00 53 1020.5
20260509000105 67 141 0.0 0.9 0.00 0.00 0.00 53 1020.5
20260508234548 67 139 0.0 1.7 0.00 0.00 0.00 54 1020.7
20260508233048 67 212 0.0 0.9 0.00 0.00 0.00 51 1020.6
20260508231550 67 162 0.0 0.9 0.00 0.00 0.00 49 1020.6
20260508230044 68 139 0.0 0.9 0.00 0.00 0.00 52 1020.6
20260508224520 68 127 0.0 0.9 0.00 0.00 0.00 51 1020.7
20260508223019 67 305 0.0 0.9 0.00 0.00 0.00 54 1020.7
20260508221552 67 228 0.0 2.6 0.00 0.00 0.00 51 1020.8
20260508220052 67 74 0.0 2.6 0.00 0.00 0.00 55 1020.8
20260508214553 67 146 0.0 1.7 0.00 0.00 0.00 54 1020.8
20260508213046 66 337 0.0 0.9 0.00 0.00 0.00 55 1020.8
20260508211545 64 176 0.0 1.7 0.00 0.00 0.00 58 1020.8
20260508210046 64 107 0.0 0.9 0.00 0.00 0.00 54 1020.9
20260508204542 63 259 0.0 1.7 0.00 0.00 0.00 59 1020.9